Total_Precipitation_Accumulation
3.50 3.60 3.73 3.91 3.62 3.67 4.11 4.25 4.02 4.14 4.12 3.82 3.52 3.20 3.07 2.86 2.78 2.85 3.04 3.06 2.96 3.08 3.39 3.58 3.42 3.29 3.02 2.70 2.48 2.38 2.31 2.21 2.09 1.84 1.67 1.78 2.00 1.96 1.70 1.56 1.55 1.39 1.33
3.80 4.00 3.95 4.06 3.82 3.58 3.77 4.01 4.00 4.63 4.47 4.32 3.84 3.48 3.36 3.26 3.07 3.01 3.10 3.33 3.22 3.01 3.10 3.51 3.65 3.59 3.44 3.16 2.89 2.63 2.49 2.38 2.11 1.74 1.61 1.63 1.82 1.96 1.83 1.70 1.56 1.43 1.29
3.75 4.01 4.21 4.18 3.92 3.67 3.90 4.06 4.26 4.54 4.31 4.17 3.93 3.71 3.56 3.48 3.25 3.15 3.42 3.65 3.41 3.25 3.15 3.28 3.59 3.79 3.88 3.88 3.55 3.10 2.69 2.37 2.14 1.88 1.68 1.61 1.74 1.88 1.85 1.80 1.68 1.49 1.30
3.78 4.01 3.95 3.85 3.94 3.88 4.12 4.37 4.49 4.58 4.49 4.30 4.08 3.76 3.59 3.65 3.23 3.11 3.16 3.24 3.34 3.07 3.25 3.52 3.73 3.80 4.05 4.23 4.17 4.02 3.51 2.85 2.46 2.13 1.89 1.76 1.80 1.77 1.72 1.75 1.72 1.53 1.33
3.58 3.79 3.79 3.90 3.97 3.97 4.02 3.69 4.30 4.36 4.48 4.35 3.76 3.60 3.32 3.33 3.21 2.86 2.85 2.72 2.88 2.96 2.99 3.11 3.42 3.53 4.03 4.47 4.67 4.72 4.55 3.88 3.11 2.62 2.40 2.18 2.05 1.85 1.68 1.67 1.70 1.63 1.49
3.52 3.74 3.75 3.90 3.91 4.00 4.04 4.00 4.32 4.30 4.16 4.13 3.37 3.26 3.16 2.89 2.81 2.76 2.56 2.57 2.68 2.57 2.69 2.92 3.24 3.02 3.53 3.99 4.18 4.58 4.90 4.68 4.02 3.46 3.18 2.95 2.72 2.38 2.05 1.92 1.91 1.87 1.73
3.59 3.96 3.85 4.21 4.10 3.89 3.85 3.93 4.22 4.16 3.88 3.94 3.95 3.47 2.90 2.58 2.60 2.49 2.58 2.69 2.52 2.58 2.89 3.28 3.41 3.20 2.93 3.04 3.10 3.49 4.33 4.99 4.89 4.40 3.98 3.59 3.37 3.10 2.55 2.35 2.27 2.15 2.01
3.55 3.56 3.95 3.92 3.96 4.09 3.99 3.94 4.15 3.99 3.59 3.77 4.07 4.04 3.35 3.14 2.65 2.14 2.41 2.59 2.66 2.89 2.98 3.03 3.39 3.52 3.19 3.25 2.65 2.63 3.47 4.56 5.13 5.13 4.67 4.18 3.86 3.61 3.22 3.04 2.75 2.41 2.23
3.20 3.36 3.51 3.70 4.05 3.92 3.92 3.98 3.90 3.83 3.60 3.58 3.77 4.12 3.70 3.27 2.76 2.22 2.12 2.40 2.77 3.02 2.95 3.02 3.13 3.31 3.37 3.59 3.39 2.94 2.87 3.26 4.19 5.12 5.21 4.78 4.23 3.83 3.67 3.65 3.40 2.92 2.58
3.16 3.19 3.32 3.51 3.69 3.47 3.52 3.21 3.33 3.62 3.79 3.54 3.65 3.57 3.50 3.43 3.34 2.77 2.36 2.34 2.62 2.80 2.99 2.96 3.08 3.22 3.45 3.87 3.92 3.39 2.96 2.77 3.13 4.22 5.10 5.23 4.75 4.24 4.14 4.23 4.28 3.89 3.26
3.17 3.12 3.14 3.22 3.24 3.07 3.14 3.07 3.30 3.30 3.31 3.33 3.44 3.51 3.61 3.59 3.40 3.21 2.84 2.74 2.64 2.40 2.49 2.70 2.92 3.07 3.28 3.69 3.89 3.56 3.43 3.12 2.99 3.24 3.91 4.54 4.69 4.52 4.30 4.40 4.73 4.81 4.39
3.01 2.93 2.86 2.90 2.92 2.90 2.95 3.00 3.15 3.05 3.08 3.24 3.31 3.35 3.53 3.55 3.59 3.57 3.06 2.82 2.60 2.13 2.13 2.14 2.38 2.68 3.08 3.40 3.28 3.37 3.25 3.02 2.85 2.84 2.94 3.37 3.73 3.97 4.08 4.33 4.83 5.35 5.46
2.51 2.62 2.54 2.67 2.69 2.74 2.79 2.90 2.98 2.95 3.09 3.24 3.15 3.23 3.30 3.25 3.39 3.51 3.41 2.93 2.61 2.23 2.30 2.25 2.24 2.46 2.60 3.00 3.06 2.97 2.73 2.63 2.44 2.39 2.37 2.52 2.76 2.99 3.25 3.63 4.18 4.79 5.25
2.15 2.37 2.50 2.51 2.51 2.53 2.63 2.91 2.73 2.78 3.00 3.04 2.93 3.36 3.23 3.00 3.14 3.22 3.40 3.52 3.10 2.65 2.64 2.51 2.39 2.38 2.49 2.70 2.71 2.65 2.38 2.33 2.08 1.97 1.92 1.90 1.89 2.03 2.26 2.56 2.98 3.36 3.74
2.14 2.21 2.25 2.35 2.47 2.61 2.79 2.98 2.81 2.90 3.15 3.04 3.16 3.43 3.27 3.11 3.12 3.09 3.38 3.69 3.71 3.26 2.90 2.69 2.49 2.39 2.35 2.31 2.41 2.22 2.21 2.24 2.02 1.86 1.74 1.64 1.58 1.55 1.64 1.78 2.02 2.28 2.50
2.18 2.06 2.01 2.09 2.18 2.31 2.50 2.68 2.59 2.73 2.98 2.97 3.03 3.18 3.17 3.10 3.31 3.31 3.42 3.69 3.91 3.80 3.14 2.85 2.73 2.40 2.44 2.05 2.22 2.09 2.07 2.07 1.85 1.73 1.64 1.61 1.58 1.56 1.54 1.56 1.64 1.78 1.97
2.12 2.05 2.02 2.03 2.02 1.99 2.07 2.24 2.25 2.51 2.57 2.61 2.58 2.68 2.67 2.94 3.15 3.14 3.34 3.51 3.75 4.02 3.54 3.18 3.19 2.90 2.85 2.56 2.31 2.10 1.87 1.83 1.70 1.68 1.55 1.50 1.47 1.45 1.47 1.45 1.42 1.49 1.61
1.89 2.00 2.05 1.97 1.86 1.90 2.04 2.05 2.11 2.37 2.48 2.45 2.45 2.55 2.41 2.64 2.78 2.86 3.09 3.25 3.53 3.98 3.79 3.43 3.32 3.19 3.07 2.84 2.61 2.35 1.88 1.64 1.66 1.78 1.61 1.48 1.41 1.37 1.38 1.37 1.32 1.29 1.31
1.75 1.82 1.87 1.81 1.78 1.92 2.15 2.24 2.35 2.40 2.31 2.28 2.26 2.19 2.13 2.34 2.40 2.61 2.80 2.82 3.03 3.46 3.55 3.22 3.05 3.27 3.14 2.94 2.97 2.59 2.26 2.17 1.69 1.70 1.62 1.45 1.37 1.29 1.27 1.33 1.33 1.24 1.21
1.74 1.80 1.85 1.96 2.02 2.03 2.02 2.08 2.22 2.33 2.30 2.13 1.98 1.89 1.93 2.11 2.11 2.28 2.37 2.58 2.81 2.94 3.16 3.10 2.96 3.07 3.09 3.01 3.20 2.96 2.76 2.57 2.18 1.78 1.78 1.55 1.42 1.34 1.27 1.25 1.26 1.28 1.30
1.65 1.85 2.07 2.16 2.16 2.06 1.91 2.01 2.11 2.00 2.00 1.88 1.73 1.61 1.56 1.59 1.68 1.88 1.85 2.15 2.47 2.57 2.65 2.79 2.80 2.89 3.10 3.25 3.10 3.10 2.94 2.76 2.53 2.28 2.22 1.82 1.51 1.32 1.27 1.27 1.28 1.33 1.38
1.68 1.87 1.93 1.99 1.95 1.75 1.87 1.77 1.68 1.68 1.70 1.70 1.70 1.68 1.51 1.41 1.43 1.51 1.55 1.65 1.91 2.06 2.25 2.51 2.58 2.65 2.88 3.16 3.26 3.28 3.17 2.94 2.70 2.49 2.60 2.53 2.13 1.82 1.58 1.33 1.33 1.35 1.43
1.79 1.78 1.72 1.75 1.79 1.90 1.78 1.56 1.48 1.44 1.55 1.62 1.68 1.66 1.39 1.28 1.37 1.32 1.44 1.47 1.57 1.66 1.78 2.04 2.17 2.20 2.47 2.80 3.18 3.21 3.26 3.05 2.80 2.76 2.87 2.86 2.91 2.63 2.03 1.67 1.61 1.40 1.45
1.89 1.82 1.65 1.65 1.68 1.64 1.62 1.46 1.47 1.37 1.39 1.50 1.59 1.63 1.62 1.57 1.48 1.52 1.55 1.47 1.36 1.39 1.45 1.42 1.53 1.79 2.01 2.29 2.70 2.85 3.11 3.27 3.09 2.98 3.03 3.08 3.12 3.33 2.80 2.22 2.07 1.77 1.68
1.85 1.92 1.82 1.73 1.68 1.67 1.66 1.49 1.50 1.41 1.47 1.50 1.61 1.65 1.64 1.57 1.58 1.56 1.54 1.52 1.39 1.34 1.35 1.36 1.36 1.52 1.76 1.91 2.22 2.56 2.84 3.04 3.09 3.16 3.24 3.31 3.24 3.41 3.63 3.13 2.46 2.12 1.83
2.09 2.15 2.03 1.94 1.96 1.99 2.05 1.84 1.74 1.55 1.53 1.56 1.69 1.69 1.61 1.53 1.62 1.53 1.39 1.44 1.43 1.47 1.52 1.48 1.49 1.54 1.59 1.74 2.05 2.28 2.54 2.84 2.87 2.96 2.82 2.86 2.90 3.07 3.46 3.58 3.15 2.50 2.05